Regional Weather Roundup
Issued by NWS

Home | Current Version | Previous Version | Graphics & Text | Print | Product List | Glossary On
Versions: 1 2 3 4 5 6 7 8 9 10 11 12 13 14 15 16 17 18 19 20 21 22 23 24 25 26 27 28 29 30 31 32 33 34 35 36 37 38 39 40 41 42 43 44 45 46 47 48 49 50
000
ASUS45 KCYS 280510
RWRWY

WYOMING REGIONAL WEATHER ROUNDUP
NATIONAL WEATHER SERVICE CHEYENNE WY
1100 PM MDT WED MAY 27 2015

NOTE:  "FAIR" INDICATES FEW OR NO CLOUDS BELOW 12,000 FEET
WITH NO SIGNIFICANT WEATHER AND/OR OBSTRUCTIONS TO VISIBILITY.

WYZ001-280600-
YELLOWSTONE NATIONAL PARK

CITY           SKY/WX    TMP DP  RH WIND       PRES   REMARKS
LK YELLOWSTONE   N/A     38  35  89 CALM      30.17F
W YELLOWSTONE  NOT AVBL

$$
WYZ002>013-054>058-071-098>099-280600-
NORTHERN WYOMING

CITY           SKY/WX    TMP DP  RH WIND       PRES   REMARKS
JACKSON        CLOUDY    45  41  87 CALM      30.12S
CODY           CLOUDY    52  46  82 CALM      30.05R
GREYBULL         N/A     60  44  55 N12       29.98S
WORLAND        FAIR      54  49  83 SW6       29.99R
SHERIDAN       FAIR      56  51  84 CALM      30.00R
BUFFALO        CLOUDY    53  48  83 NW8       30.04S
GILLETTE       LGT RAIN  58  54  86 NE10      29.97F
HULETT         FAIR      54  52  94 CALM      29.99S
NEWCASTLE      FAIR      61  46  59 E10       29.98F

$$
WYZ014>020-022>026-101>103-280600-
CENTRAL WYOMING

CITY           SKY/WX    TMP DP  RH WIND       PRES   REMARKS
BIG PINEY      FAIR      43  40  89 N7        30.16R
PINEDALE       FAIR      41  41 100 NW3       30.16S
DUBOIS         FAIR      43  36  75 NW13      30.12S
LANDER         FAIR      55  38  52 W6        30.01
RIVERTON       FAIR      51  45  79 N5        30.04R
CASPER         FAIR      52  44  74 W6        30.03S
DOUGLAS        MOCLDY    58  45  62 CALM      30.01F

$$
WYZ021-027>030-104>119-280600-
SOUTHERN WYOMING

CITY           SKY/WX    TMP DP  RH WIND       PRES   REMARKS
EVANSTON       LGT RAIN  43  40  89 S13       30.19F
KEMMERER       CLOUDY    45  39  81 CALM      30.18R
FORT BRIDGER   LGT RAIN  48  43  81 SW13      30.22R
ROCK SPRINGS   MOCLDY    48  42  80 S8        30.14S
DIXON          CLOUDY    51  43  75 E6        30.20S
RAWLINS        FAIR      47  42  83 W7        30.14S
SARATOGA       FAIR      45  41  87 S8        30.18R
LARAMIE        FAIR      47  39  74 N5        30.15S
CHEYENNE       LGT RAIN  54  52  93 E15G21    30.10F
TORRINGTON     FAIR      60  55  83 S10       30.01R
PINE BLUFFS    CLOUDY    55  54  94 SE9       30.11R

$$


USA.gov is the U.S. government's official web portal to all federal, state and local government web resources and services.